Time,TemperatureF,DewpointF,PressureIn,WindDirection,WindDirectionDegrees,WindSpeedMPH,WindSpeedGustMPH,Humidity,HourlyPrecipIn,Conditions,Clouds,dailyrainin,SoftwareType,DateUTC
2013-03-16 00:00:00,42.3,34.6,30.11,SW,236,0.0,0.0,74,0.00,,,0.00,Wunderground v.1.13,2013-03-15 23:00:00,
2013-03-16 00:10:00,42.0,34.3,30.11,SW,236,0.0,0.0,74,0.00,,,0.00,Wunderground v.1.13,2013-03-15 23:10:00,
2013-03-16 00:15:00,42.0,34.6,30.11,SW,236,0.0,0.0,75,0.00,,,0.00,Wunderground v.1.13,2013-03-15 23:15:00,
2013-03-16 00:20:00,42.0,34.6,30.11,SW,236,0.0,1.0,75,0.00,,,0.00,Wunderground v.1.13,2013-03-15 23:20:00,
2013-03-16 00:30:00,41.7,34.4,30.11,SW,236,0.0,0.0,75,0.00,,,0.00,Wunderground v.1.13,2013-03-15 23:30:00,
2013-03-16 00:35:00,41.6,34.3,30.11,SW,236,0.0,0.0,75,0.00,,,0.00,Wunderground v.1.13,2013-03-15 23:35:00,
2013-03-16 00:45:00,41.5,34.2,30.11,SW,236,0.0,0.0,75,0.00,,,0.00,Wunderground v.1.13,2013-03-15 23:45:00,
2013-03-16 00:50:00,41.4,34.1,30.11,SW,236,0.0,0.0,75,0.00,,,0.00,Wunderground v.1.13,2013-03-15 23:50:00,
2013-03-16 00:55:00,41.3,34.0,30.11,SW,236,0.0,0.0,75,0.00,,,0.00,Wunderground v.1.13,2013-03-15 23:55:00,
2013-03-16 01:05:00,40.9,33.2,30.11,SW,236,0.0,0.0,74,0.00,,,0.00,Wunderground v.1.13,2013-03-16 00:05:00,
2013-03-16 01:10:00,40.8,33.5,30.11,SW,236,0.0,0.0,75,0.00,,,0.00,Wunderground v.1.13,2013-03-16 00:10:00,
2013-03-16 01:15:00,40.9,33.6,30.11,SW,236,0.0,0.0,75,0.00,,,0.00,Wunderground v.1.13,2013-03-16 00:15:00,
2013-03-16 01:20:00,41.0,34.0,30.11,SW,236,0.0,0.0,76,0.00,,,0.00,Wunderground v.1.13,2013-03-16 00:20:00,
2013-03-16 01:25:00,41.0,34.0,30.11,SW,236,0.0,0.0,76,0.00,,,0.00,Wunderground v.1.13,2013-03-16 00:25:00,
2013-03-16 01:30:00,40.9,33.9,30.11,SW,236,0.0,0.0,76,0.00,,,0.00,Wunderground v.1.13,2013-03-16 00:30:00,
2013-03-16 01:40:00,40.9,34.2,30.11,SW,236,0.0,0.0,77,0.00,,,0.00,Wunderground v.1.13,2013-03-16 00:40:00,
2013-03-16 01:45:00,40.8,34.1,30.11,SW,236,0.0,0.0,77,0.00,,,0.00,Wunderground v.1.13,2013-03-16 00:45:00,
2013-03-16 01:55:00,40.7,34.0,30.11,SW,236,0.0,0.0,77,0.00,,,0.00,Wunderground v.1.13,2013-03-16 00:55:00,
2013-03-16 02:05:00,40.0,32.7,30.10,SW,236,0.0,0.0,75,0.00,,,0.00,Wunderground v.1.13,2013-03-16 01:05:00,
2013-03-16 02:10:00,39.8,32.2,30.10,SW,236,0.0,0.0,74,0.00,,,0.00,Wunderground v.1.13,2013-03-16 01:10:00,
2013-03-16 02:15:00,39.7,31.8,30.10,SW,236,0.0,0.0,73,0.00,,,0.00,Wunderground v.1.13,2013-03-16 01:15:00,
2013-03-16 02:25:00,39.5,30.9,30.10,SW,236,0.0,0.0,71,0.00,,,0.00,Wunderground v.1.13,2013-03-16 01:25:00,
2013-03-16 02:30:00,39.5,30.9,30.10,SW,236,0.0,0.0,71,0.00,,,0.00,Wunderground v.1.13,2013-03-16 01:30:00,
2013-03-16 02:35:00,39.6,31.0,30.10,SW,236,0.0,0.0,71,0.00,,,0.00,Wunderground v.1.13,2013-03-16 01:35:00,
2013-03-16 02:45:00,39.7,30.7,30.11,SW,236,1.0,1.0,70,0.00,,,0.00,Wunderground v.1.13,2013-03-16 01:45:00,
2013-03-16 02:50:00,39.7,31.1,30.11,SW,236,0.0,0.0,71,0.00,,,0.00,Wunderground v.1.13,2013-03-16 01:50:00,
2013-03-16 03:00:00,39.5,30.9,30.09,SW,236,0.0,0.0,71,0.00,,,0.00,Wunderground v.1.13,2013-03-16 02:00:00,
2013-03-16 03:10:00,39.5,30.9,30.09,SW,236,0.0,0.0,71,0.00,,,0.00,Wunderground v.1.13,2013-03-16 02:10:00,
2013-03-16 03:15:00,39.4,30.8,30.09,SW,236,0.0,0.0,71,0.00,,,0.00,Wunderground v.1.13,2013-03-16 02:15:00,
2013-03-16 03:25:00,39.3,30.7,30.09,SW,236,0.0,0.0,71,0.00,,,0.00,Wunderground v.1.13,2013-03-16 02:25:00,
2013-03-16 03:30:00,39.3,30.7,30.09,SW,236,0.0,0.0,71,0.00,,,0.00,Wunderground v.1.13,2013-03-16 02:30:00,
2013-03-16 03:40:00,39.6,29.9,30.08,SW,236,0.0,0.0,68,0.00,,,0.00,Wunderground v.1.13,2013-03-16 02:40:00,
2013-03-16 03:45:00,39.8,29.7,30.07,SW,236,0.0,0.0,67,0.00,,,0.00,Wunderground v.1.13,2013-03-16 02:45:00,
2013-03-16 03:55:00,40.2,29.0,30.07,SW,236,0.0,0.0,64,0.00,,,0.00,Wunderground v.1.13,2013-03-16 02:55:00,
2013-03-16 04:00:00,40.2,29.0,30.07,SW,236,0.0,0.0,64,0.00,,,0.00,Wunderground v.1.13,2013-03-16 03:00:00,
2013-03-16 04:10:00,40.0,28.8,30.07,SW,236,0.0,0.0,64,0.00,,,0.00,Wunderground v.1.13,2013-03-16 03:10:00,
2013-03-16 04:15:00,40.1,28.5,30.07,SW,236,0.0,0.0,63,0.00,,,0.00,Wunderground v.1.13,2013-03-16 03:15:00,
2013-03-16 04:25:00,40.0,28.4,30.07,SW,236,0.0,0.0,63,0.00,,,0.00,Wunderground v.1.13,2013-03-16 03:25:00,
2013-03-16 04:30:00,40.0,28.0,30.07,SW,236,0.0,0.0,62,0.00,,,0.00,Wunderground v.1.13,2013-03-16 03:30:00,
2013-03-16 04:35:00,39.9,28.3,30.07,SW,236,0.0,0.0,63,0.00,,,0.00,Wunderground v.1.13,2013-03-16 03:35:00,
2013-03-16 04:45:00,40.2,28.2,30.07,SW,236,0.0,0.0,62,0.00,,,0.00,Wunderground v.1.13,2013-03-16 03:45:00,
2013-03-16 04:50:00,40.3,28.3,30.07,SW,236,0.0,0.0,62,0.00,,,0.00,Wunderground v.1.13,2013-03-16 03:50:00,
2013-03-16 05:00:00,41.0,27.8,30.06,SW,236,0.0,0.0,59,0.00,,,0.00,Wunderground v.1.13,2013-03-16 04:00:00,
2013-03-16 05:05:00,41.3,27.6,30.06,SW,236,1.0,4.0,58,0.00,,,0.00,Wunderground v.1.13,2013-03-16 04:05:00,
2013-03-16 05:10:00,41.1,28.3,30.06,SW,236,2.0,2.0,60,0.00,,,0.00,Wunderground v.1.13,2013-03-16 04:10:00,
2013-03-16 05:20:00,40.7,28.3,30.05,SW,236,0.0,0.0,61,0.00,,,0.00,Wunderground v.1.13,2013-03-16 04:20:00,
2013-03-16 05:25:00,40.5,28.5,30.06,SW,236,0.0,0.0,62,0.00,,,0.00,Wunderground v.1.13,2013-03-16 04:25:00,
2013-03-16 05:35:00,40.3,28.7,30.06,SW,236,0.0,0.0,63,0.00,,,0.00,Wunderground v.1.13,2013-03-16 04:35:00,
2013-03-16 05:40:00,40.4,28.8,30.06,SW,236,0.0,0.0,63,0.00,,,0.00,Wunderground v.1.13,2013-03-16 04:40:00,
2013-03-16 05:45:00,40.3,28.7,30.05,SW,236,0.0,0.0,63,0.00,,,0.00,Wunderground v.1.13,2013-03-16 04:45:00,
2013-03-16 05:55:00,40.3,29.5,30.06,SW,236,0.0,0.0,65,0.00,,,0.00,Wunderground v.1.13,2013-03-16 04:55:00,
2013-03-16 06:00:00,40.2,29.4,30.05,SW,236,0.0,0.0,65,0.00,,,0.00,Wunderground v.1.13,2013-03-16 05:00:00,
2013-03-16 06:10:00,40.4,29.9,30.06,SW,236,0.0,0.0,66,0.00,,,0.00,Wunderground v.1.13,2013-03-16 05:10:00,
2013-03-16 06:15:00,40.7,30.6,30.06,SW,236,0.0,0.0,67,0.00,,,0.00,Wunderground v.1.13,2013-03-16 05:15:00,
2013-03-16 06:25:00,40.9,30.0,30.06,SW,236,0.0,0.0,65,0.00,,,0.00,Wunderground v.1.13,2013-03-16 05:25:00,
2013-03-16 06:30:00,40.9,30.4,30.06,SW,236,0.0,0.0,66,0.00,,,0.00,Wunderground v.1.13,2013-03-16 05:30:00,
2013-03-16 06:40:00,40.6,30.5,30.07,SW,236,0.0,0.0,67,0.00,,,0.00,Wunderground v.1.13,2013-03-16 05:40:00,
2013-03-16 06:45:00,40.5,30.4,30.06,SW,236,0.0,0.0,67,0.00,,,0.00,Wunderground v.1.13,2013-03-16 05:45:00,
2013-03-16 06:55:00,40.4,30.7,30.06,SW,236,0.0,0.0,68,0.00,,,0.00,Wunderground v.1.13,2013-03-16 05:55:00,
2013-03-16 07:00:00,40.4,31.0,30.05,SW,236,0.0,0.0,69,0.00,,,0.00,Wunderground v.1.13,2013-03-16 06:00:00,
2013-03-16 07:10:00,40.2,31.5,30.06,SW,236,0.0,0.0,71,0.00,,,0.00,Wunderground v.1.13,2013-03-16 06:10:00,
2013-03-16 07:20:00,40.2,31.9,30.06,SW,236,0.0,0.0,72,0.00,,,0.00,Wunderground v.1.13,2013-03-16 06:20:00,
2013-03-16 07:25:00,40.3,32.0,30.06,SW,236,0.0,0.0,72,0.00,,,0.00,Wunderground v.1.13,2013-03-16 06:25:00,
2013-03-16 07:30:00,40.4,32.1,30.06,SW,236,0.0,0.0,72,0.00,,,0.00,Wunderground v.1.13,2013-03-16 06:30:00,
2013-03-16 07:40:00,40.7,32.7,30.06,SW,236,0.0,0.0,73,0.00,,,0.00,Wunderground v.1.13,2013-03-16 06:40:00,
2013-03-16 07:45:00,41.1,33.1,30.07,SW,236,0.0,0.0,73,0.00,,,0.00,Wunderground v.1.13,2013-03-16 06:45:00,
2013-03-16 07:50:00,41.4,33.4,30.07,SW,236,0.0,0.0,73,0.00,,,0.00,Wunderground v.1.13,2013-03-16 06:50:00,
2013-03-16 07:55:00,41.8,34.1,30.07,SW,236,0.0,0.0,74,0.00,,,0.00,Wunderground v.1.13,2013-03-16 06:55:00,
2013-03-16 08:05:00,42.9,35.2,30.07,SW,236,0.0,3.0,74,0.00,,,0.00,Wunderground v.1.13,2013-03-16 07:05:00,
2013-03-16 08:10:00,43.3,35.6,30.07,SW,236,1.0,1.0,74,0.00,,,0.00,Wunderground v.1.13,2013-03-16 07:10:00,
2013-03-16 08:15:00,43.8,36.0,30.07,SW,236,1.0,1.0,74,0.00,,,0.00,Wunderground v.1.13,2013-03-16 07:15:00,
2013-03-16 08:20:00,44.2,36.1,30.07,SW,235,0.0,0.0,73,0.00,,,0.00,Wunderground v.1.13,2013-03-16 07:20:00,
2013-03-16 08:30:00,44.9,36.4,30.07,SW,236,0.0,0.0,72,0.00,,,0.00,Wunderground v.1.13,2013-03-16 07:30:00,
2013-03-16 08:39:00,45.7,37.2,30.07,SW,236,0.0,0.0,72,0.00,,,0.00,Wunderground v.1.13,2013-03-16 07:39:00,
2013-03-16 08:45:00,46.0,37.5,30.06,SW,236,0.0,0.0,72,0.00,,,0.00,Wunderground v.1.13,2013-03-16 07:45:00,
2013-03-16 08:55:00,47.1,38.5,30.06,SW,236,0.0,0.0,72,0.00,,,0.00,Wunderground v.1.13,2013-03-16 07:55:00,
2013-03-16 12:26:00,56.1,41.1,30.01,West,270,5.0,9.0,57,0.00,,,0.00,Wunderground v.1.13,2013-03-16 11:26:00,
2013-03-16 12:31:00,56.1,42.0,30.01,WSW,248,8.0,11.0,59,0.00,,,0.00,Wunderground v.1.13,2013-03-16 11:31:00,
2013-03-16 12:36:00,56.7,42.1,30.00,SE,135,7.0,12.0,58,0.00,,,0.00,Wunderground v.1.13,2013-03-16 11:36:00,
2013-03-16 12:41:00,57.1,41.1,30.00,WSW,248,4.0,7.0,55,0.00,,,0.00,Wunderground v.1.13,2013-03-16 11:41:00,
2013-03-16 12:46:00,57.9,40.9,30.00,WSW,248,5.0,9.0,53,0.00,,,0.00,Wunderground v.1.13,2013-03-16 11:46:00,
2013-03-16 12:51:00,58.0,40.0,29.99,SW,225,5.0,8.0,51,0.00,,,0.00,Wunderground v.1.13,2013-03-16 11:51:00,
2013-03-16 12:56:00,58.2,40.1,29.99,West,270,7.0,10.0,51,0.00,,,0.00,Wunderground v.1.13,2013-03-16 11:56:00,
2013-03-16 13:01:00,58.0,40.0,29.99,SW,225,2.0,7.0,51,0.00,,,0.00,Wunderground v.1.13,2013-03-16 12:01:00,
2013-03-16 13:06:00,58.0,39.5,29.99,WSW,248,4.0,7.0,50,0.00,,,0.00,Wunderground v.1.13,2013-03-16 12:06:00,
2013-03-16 13:11:00,57.7,38.1,29.98,West,270,7.0,12.0,48,0.00,,,0.00,Wunderground v.1.13,2013-03-16 12:11:00,
2013-03-16 13:16:00,57.8,37.1,29.98,West,270,4.0,9.0,46,0.00,,,0.00,Wunderground v.1.13,2013-03-16 12:16:00,
2013-03-16 13:21:00,58.3,38.1,29.98,West,270,3.0,10.0,47,0.00,,,0.00,Wunderground v.1.13,2013-03-16 12:21:00,
2013-03-16 13:26:00,58.8,39.1,29.97,West,270,6.0,9.0,48,0.00,,,0.00,Wunderground v.1.13,2013-03-16 12:26:00,
2013-03-16 13:31:00,58.9,38.7,29.97,SW,225,5.0,7.0,47,0.00,,,0.00,Wunderground v.1.13,2013-03-16 12:31:00,
2013-03-16 13:36:00,58.7,36.8,29.97,SW,225,6.0,9.0,44,0.00,,,0.00,Wunderground v.1.13,2013-03-16 12:36:00,
2013-03-16 13:41:00,58.4,36.6,29.97,SW,225,5.0,8.0,44,0.00,,,0.00,Wunderground v.1.13,2013-03-16 12:41:00,
2013-03-16 13:46:00,58.5,37.2,29.97,West,270,5.0,7.0,45,0.00,,,0.00,Wunderground v.1.13,2013-03-16 12:46:00,
2013-03-16 13:51:00,58.7,37.4,29.97,West,270,6.0,9.0,45,0.00,,,0.00,Wunderground v.1.13,2013-03-16 12:51:00,
2013-03-16 13:56:00,58.4,37.7,29.97,West,270,3.0,7.0,46,0.00,,,0.00,Wunderground v.1.13,2013-03-16 12:56:00,
2013-03-16 14:01:00,58.2,38.1,29.97,SW,225,1.0,6.0,47,0.00,,,0.00,Wunderground v.1.13,2013-03-16 13:01:00,
2013-03-16 14:06:00,58.4,37.1,29.97,WSW,248,4.0,6.0,45,0.00,,,0.00,Wunderground v.1.13,2013-03-16 13:06:00,
2013-03-16 14:11:00,58.2,36.9,29.96,West,270,6.0,9.0,45,0.00,,,0.00,Wunderground v.1.13,2013-03-16 13:11:00,
2013-03-16 14:16:00,58.1,36.3,29.97,West,270,3.0,7.0,44,0.00,,,0.00,Wunderground v.1.13,2013-03-16 13:16:00,
2013-03-16 14:21:00,58.0,37.3,29.97,West,270,4.0,8.0,46,0.00,,,0.00,Wunderground v.1.13,2013-03-16 13:21:00,
2013-03-16 14:26:00,57.9,37.8,29.96,SSW,203,3.0,6.0,47,0.00,,,0.00,Wunderground v.1.13,2013-03-16 13:26:00,
2013-03-16 14:31:00,57.7,38.1,29.97,West,270,3.0,6.0,48,0.00,,,0.00,Wunderground v.1.13,2013-03-16 13:31:00,
2013-03-16 14:36:00,57.4,38.4,29.97,WSW,248,3.0,7.0,49,0.00,,,0.00,Wunderground v.1.13,2013-03-16 13:36:00,
2013-03-16 14:41:00,57.4,38.9,29.97,WSW,248,5.0,8.0,50,0.00,,,0.00,Wunderground v.1.13,2013-03-16 13:41:00,
2013-03-16 14:46:00,57.3,39.3,29.96,West,270,4.0,5.0,51,0.00,,,0.00,Wunderground v.1.13,2013-03-16 13:46:00,
2013-03-16 14:51:00,57.4,38.4,29.96,West,270,5.0,7.0,49,0.00,,,0.00,Wunderground v.1.13,2013-03-16 13:51:00,
2013-03-16 14:56:00,57.4,38.4,29.96,WSW,248,5.0,7.0,49,0.00,,,0.00,Wunderground v.1.13,2013-03-16 13:56:00,
2013-03-16 15:01:00,57.5,39.0,29.96,WSW,248,4.0,7.0,50,0.00,,,0.00,Wunderground v.1.13,2013-03-16 14:01:00,
2013-03-16 15:06:00,57.1,40.1,29.96,SW,225,5.0,8.0,53,0.00,,,0.00,Wunderground v.1.13,2013-03-16 14:06:00,
2013-03-16 15:11:00,56.4,40.4,29.96,West,270,4.0,7.0,55,0.00,,,0.00,Wunderground v.1.13,2013-03-16 14:11:00,
2013-03-16 15:16:00,56.3,40.8,29.96,South,180,1.0,5.0,56,0.00,,,0.00,Wunderground v.1.13,2013-03-16 14:16:00,
2013-03-16 15:21:00,56.2,40.7,29.96,WSW,248,0.0,3.0,56,0.00,,,0.00,Wunderground v.1.13,2013-03-16 14:21:00,
2013-03-16 15:26:00,56.1,40.6,29.97,SW,225,4.0,6.0,56,0.00,,,0.00,Wunderground v.1.13,2013-03-16 14:26:00,
2013-03-16 15:31:00,55.7,40.7,29.96,SW,225,3.0,6.0,57,0.00,,,0.00,Wunderground v.1.13,2013-03-16 14:31:00,
2013-03-16 15:36:00,55.5,41.4,29.96,West,270,4.0,7.0,59,0.00,,,0.00,Wunderground v.1.13,2013-03-16 14:36:00,
2013-03-16 15:41:00,55.3,41.2,29.96,SW,225,4.0,8.0,59,0.00,,,0.00,Wunderground v.1.13,2013-03-16 14:41:00,
2013-03-16 15:46:00,55.0,41.4,29.96,SW,225,5.0,9.0,60,0.00,,,0.00,Wunderground v.1.13,2013-03-16 14:46:00,
2013-03-16 15:51:00,55.0,41.8,29.96,WSW,248,5.0,7.0,61,0.00,,,0.00,Wunderground v.1.13,2013-03-16 14:51:00,
2013-03-16 15:56:00,55.0,41.4,29.96,West,270,6.0,13.0,60,0.00,,,0.00,Wunderground v.1.13,2013-03-16 14:56:00,
2013-03-16 16:01:00,54.9,41.3,29.96,SW,225,4.0,6.0,60,0.00,,,0.00,Wunderground v.1.13,2013-03-16 15:01:00,
2013-03-16 16:06:00,55.0,41.8,29.96,WSW,248,0.0,1.0,61,0.00,,,0.00,Wunderground v.1.13,2013-03-16 15:06:00,
2013-03-16 16:11:00,55.1,41.9,29.96,West,270,5.0,7.0,61,0.00,,,0.00,Wunderground v.1.13,2013-03-16 15:11:00,
2013-03-16 16:16:00,55.0,42.2,29.96,West,270,3.0,7.0,62,0.00,,,0.00,Wunderground v.1.13,2013-03-16 15:16:00,
2013-03-16 16:21:00,55.0,42.2,29.96,SW,225,3.0,7.0,62,0.00,,,0.00,Wunderground v.1.13,2013-03-16 15:21:00,
2013-03-16 16:26:00,54.9,42.1,29.96,WSW,248,1.0,7.0,62,0.00,,,0.00,Wunderground v.1.13,2013-03-16 15:26:00,
2013-03-16 16:31:00,54.8,42.0,29.96,SW,225,3.0,8.0,62,0.00,,,0.00,Wunderground v.1.13,2013-03-16 15:31:00,
2013-03-16 16:36:00,54.6,41.8,29.96,WSW,248,4.0,7.0,62,0.00,,,0.00,Wunderground v.1.13,2013-03-16 15:36:00,
2013-03-16 16:41:00,54.4,41.6,29.96,SW,225,2.0,4.0,62,0.00,,,0.00,Wunderground v.1.13,2013-03-16 15:41:00,